Regional Weather Roundup
Issued by NWS Jackson, KY

Home | Current Version | Previous Version | Text Only | Print | Product List | Glossary On
Versions: 1 2 3 4 5 6 7 8 9 10 11 12 13 14 15 16 17 18 19 20 21 22 23 24 25
000
ASUS43 KJKL 291210
RWRJKL

EAST KENTUCKY HOURLY WEATHER ROUNDUP
NATIONAL WEATHER SERVICE JACKSON KY
800 AM EDT THU JUN 29 2017

NOTE: "FAIR" INDICATES FEW OR NO CLOUDS BELOW 12,000 FEET WITH
NO SIGNIFICANT WEATHER AND/OR OBSTRUCTIONS TO VISIBILITY.

* THESE REPORTS ARE NOT UNDER NWS QUALITY CONTROL AND MAY NOT
  REPORT WEATHER SUCH AS PRECIPITATION AND FOG.

KYZ079-080-083-085-087-088-110-112-115-119-120-291300
...EASTERN KENTUCKY...

CITY           SKY/WX    TMP DP  RH WIND       PRES   REMARKS
JACKSON        SUNNY     67  58  72 CALM      30.15R
6HR MIN TEMP:  64; 6HR MAX TEMP:  67;

LONDON         SUNNY     67  58  72 CALM      30.15R
6HR MIN TEMP:  59; 6HR MAX TEMP:  67;

SOMERSET*      PTSUNNY   70  61  73 S3        30.14S
MONTICELLO*    MOSUNNY   74  65  73 VRB5      30.14S
6HR MIN TEMP:  61; 6HR MAX TEMP:  74;

WILLIAMSBURG*  SUNNY     64  63  94 CALM      30.15S
MIDDLESBORO*   CLOUDY    62  59  89 CALM      30.17S
6HR MIN TEMP:  57; 6HR MAX TEMP:  62;

HARLAN APT*    CLOUDY    61  57  88 CALM      30.19R
PIKE CO APT*     N/A     68  58  69 S5        30.16R
BIG SANDY APT* SUNNY     70  59  67 S5        30.15S
6HR MIN TEMP:  65; 6HR MAX TEMP:  70;

MOREHEAD APT*  MOSUNNY   68  57  68 S7        30.12S
ASHLAND*       MOSUNNY   64  63  94 CALM      30.08F
$$

KYZ035-036-041-042-044-050-067-078-099-291300
...CENTRAL KENTUCKY...

CITY           SKY/WX    TMP DP  RH WIND       PRES   REMARKS
MT STERLING*   PTSUNNY   70  61  73 SW8       30.12S
FLEMING/MASON* SUNNY     68  60  74 S12       30.09S
DANVILLE*      PTSUNNY   70  61  73 SW5       30.12R
LEXINGTON      MOSUNNY   71  60  68 S10       30.09S
6HR MIN TEMP:  66; 6HR MAX TEMP:  71;

FRANKFORT      CLOUDY    70  60  70 S7        30.06S
6HR MIN TEMP:  63; 6HR MAX TEMP:  70;

LOUISVILLE     PTSUNNY   75  62  64 S12G18    30.04S
6HR MIN TEMP:  69; 6HR MAX TEMP:  75;

LEBANON*         N/A     72  63  73 S12       30.10R
GLASGOW*       PTSUNNY   72  63  72 S5        30.09S
BOWLING GREEN  CLOUDY    73  65  75 S10       30.08R
6HR MIN TEMP:  68; 6HR MAX TEMP:  73;

$$

KYZ091>093-OHZ055-061-077-WVZ005-015-034-035-042-291300
...SOUTHERN OHIO/WEST VIRGINIA...

CITY           SKY/WX    TMP DP  RH WIND       PRES   REMARKS
COVINGTON      PTSUNNY   69  61  75 S9        30.03S
COLUMBUS       PTSUNNY   68  57  68 S9        30.02S
DAYTON         PTSUNNY   68  55  63 S17       29.99F
WILMINGTON     MOSUNNY   69  60  73 S13       30.03S
CHARLESTON     MOSUNNY   64  57  78 CALM      30.13S
PINEVILLE*     MOSUNNY   58  57  97 MISG      30.25R
BLUEFIELD      SUNNY     65  53  65 W3        30.24S
LOGAN CO APT*    N/A     68  57  68 CALM      30.17S
$$

VAZ002-007-008-TNZ017-027-036-066-071-291300
...SOUTHWEST VIRGINIA/EAST TENNESSEE...

CITY           SKY/WX    TMP DP  RH WIND       PRES   REMARKS
WISE*          CLOUDY    68  55  64 CALM      30.24S
JONESVILLE*      N/A     63  57  82 CALM      30.22R
ABINGDON*      CLOUDY    65  61  87 CALM      30.23R
BRISTOL        CLOUDY    64  59  83 CALM      30.20R
MORRISTOWN*    SUNNY     66  59  77 CALM      30.17R
SEVIERVILLE*   SUNNY     63  57  82 CALM      30.16S
KNOXVILLE      MOSUNNY   70  61  73 SW6       30.15S
LAFOLLETTE*    SUNNY     66  61  82 NE3       30.19S
OAK RIDGE      MOSUNNY   70  61  73 CALM      30.17S
CROSSVILLE     SUNNY     69  63  81 VRB7      30.18S
NASHVILLE      PTSUNNY   73  65  75 SE3       30.09R
$$

...KEY TO REMARKS...
VSB - VISIBILITY IN MILES
WCI - WIND CHILL INDEX
HX  - HEAT INDEX

$$




USA.gov is the U.S. government's official web portal to all federal, state and local government web resources and services.